Location: Ballingbuur
(53.0000°N, 5.7667°E)
Time: 21:14:55
(UTC+00:00)

NOSS 3-4 (A) - Pass Details

Date: 29 November 2020
Orbit: 879 x 1333 km, 63.4° (Epoch: 22 January)

Event Time Altitude Azimuth Distance (km) Brightness Sun altitude
Exits shadow 05:48:23 13° 254° (WSW) 2,409 5.1 -13.7°
Maximum altitude 05:53:45 54° 330° (NNW) 1,152 3.6 -13.0°
Drops below altitude 10° 06:00:13 10° 47° (NE) 2,839 6.3 -12.0°
Sets 06:03:03 0° 52° (NE) 3,865 7.1 -11.6°
